星链-32150 (STARLINK-32150)

导读 | 星芒AI

STARLINK-32150 是 SpaceX Starlink 卫星互联网计划中的一颗低轨卫星,属于第二代 Starlink 卫星(Gen2)。该卫星于2024年发射,旨在为全球用户提供高速、低延迟的宽带互联网服务。它运行在约550公里高的近地轨道,配备先进通信设备和激光链路,以提升网络性能和卫星间通信效率。作为 Starlink 计划的重要组成部分,STARLINK-32150 有助于扩大覆盖范围,优化网络容量,推动全球互联网接入的普及。

基本信息
目录编号:
60294
目录名称:
STARLINK-32150
国际标识:
2024-132S
轨道中心:
EARTH
卫星名称:
星链-32150 (STARLINK-32150)
卫星全名:
星链-32150 (STARLINK-32150)
卫星状态:
在轨 (已飞行510 天)
发射日期:
2024-07-28 UTC
国别 :
美国 (US)
星等 :
--
轨道信息
数据来源 国际轨道数据 AOE轨道数据
星历时间 2025-12-19T22:06:42+0800
17小时前
查看轨道信息
2025-12-15T03:00:00+0800
5天前
查看轨道信息
半长轴 6853.468km 6853.326km
偏心率 0.0001248 0.0001264
轨道倾角 53.160° 53.158°
近地点辐角 110.067° 70.099°
升交点赤经 64.697° 86.974°
平近点角 250.047° 134.045°
近地点 474.475km 474.324km
远地点 476.187km 476.058km
周期 94.108分钟 94.105分钟
每日圈数 15.301612 15.302089
详细信息
卫星平台:
Starlink v2.0 mini
运营商:
太空探索技术公司
运营商所在国:
美国
制造商(研发单位):
太空探索技术公司
制造商所在国:
美国
使用方式:
暂无
卫星简介
星链(Starlink)计划是由太空探索技术公司(SpaceX)提出的一个巨型低轨卫星互联网星座项目,计划在2019年至2024年间在太空搭建由约1.2万颗卫星组成的“星链”网络,其中1584颗将部署在地球上空550千米处的近地轨道,并从2020年开始工作。该卫星仍在工作。
2D轨道图
3D轨道图
轨道高度分析图
轨道倾角分析图
轨道综合分析图
查看轨道综合分析图